#Datum;Uhrzeit;WR;Pac;DaySum;Status;WR;Pac;DaySum;Status;Pdc1;Udc;Temp;WR;Pac;DaySum;Status;Pdc1;Udc;Temp;WR;Pac;DaySum;Status;Pdc1;Udc;Temp;WR;Pac;DaySum;Status;Pdc1;Pdc2;Udc1;Udc2;Temp;WR;Pac;DaySum;Status;Pdc1;Pdc2;Udc1;Udc2;Temp;WR;Pac;DaySum;Status;Pdc1;Udc;Temp;WR;Pac;DaySum;Status;Pdc1;Udc;Temp;WR;Pac;DaySum;Status;Pdc1;Udc;Temp
27.01.21;23:55:00;1;350;15812;0;2;0;8299;0;0;0;0;3;0;4467;0;0;0;0;4;0;5890;0;0;0;0;5;0;0;0;0;0;0;0;0;6;0;15952;0;0;0;0;0;0;7;0;14906;0;0;0;0;8;0;12725;0;0;0;0;9;0;6027;0;0;0;0
27.01.21;23:50:00;1;358;15782;0;2;0;8299;0;0;0;0;3;0;4467;0;0;0;0;4;0;5890;0;0;0;0;5;0;0;0;0;0;0;0;0;6;0;15952;0;0;0;0;0;0;7;0;14906;0;0;0;0;8;0;12725;0;0;0;0;9;0;6027;0;0;0;0
27.01.21;23:45:00;1;375;15752;0;2;0;8299;0;0;0;0;3;0;4467;0;0;0;0;4;0;5890;0;0;0;0;5;0;0;0;0;0;0;0;0;6;0;15952;0;0;0;0;0;0;7;0;14906;0;0;0;0;8;0;12725;0;0;0;0;9;0;6027;0;0;0;0
27.01.21;23:40:00;1;420;15721;0;2;0;8299;0;0;0;0;3;0;4467;0;0;0;0;4;0;5890;0;0;0;0;5;0;0;0;0;0;0;0;0;6;0;15952;0;0;0;0;0;0;7;0;14906;0;0;0;0;8;0;12725;0;0;0;0;9;0;6027;0;0;0;0
27.01.21;23:35:00;1;346;15686;0;2;0;8299;0;0;0;0;3;0;4467;0;0;0;0;4;0;5890;0;0;0;0;5;0;0;0;0;0;0;0;0;6;0;15952;0;0;0;0;0;0;7;0;14906;0;0;0;0;8;0;12725;0;0;0;0;9;0;6027;0;0;0;0
27.01.21;23:30:00;1;327;15657;0;2;0;8299;0;0;0;0;3;0;4467;0;0;0;0;4;0;5890;0;0;0;0;5;0;0;0;0;0;0;0;0;6;0;15952;0;0;0;0;0;0;7;0;14906;0;0;0;0;8;0;12725;0;0;0;0;9;0;6027;0;0;0;0
27.01.21;23:25:00;1;591;15629;0;2;0;8299;0;0;0;0;3;0;4467;0;0;0;0;4;0;5890;0;0;0;0;5;0;0;0;0;0;0;0;0;6;0;15952;0;0;0;0;0;0;7;0;14906;0;0;0;0;8;0;12725;0;0;0;0;9;0;6027;0;0;0;0
27.01.21;23:20:00;1;377;15567;0;2;0;8299;0;0;0;0;3;0;4467;0;0;0;0;4;0;5890;0;0;0;0;5;0;0;0;0;0;0;0;0;6;0;15952;0;0;0;0;0;0;7;0;14906;0;0;0;0;8;0;12725;0;0;0;0;9;0;6027;0;0;0;0
27.01.21;23:15:00;1;380;15535;0;2;0;8299;0;0;0;0;3;0;4467;0;0;0;0;4;0;5890;0;0;0;0;5;0;0;0;0;0;0;0;0;6;0;15952;0;0;0;0;0;0;7;0;14906;0;0;0;0;8;0;12725;0;0;0;0;9;0;6027;0;0;0;0
27.01.21;23:10:00;1;360;15504;0;2;0;8299;0;0;0;0;3;0;4467;0;0;0;0;4;0;5890;0;0;0;0;5;0;0;0;0;0;0;0;0;6;0;15952;0;0;0;0;0;0;7;0;14906;0;0;0;0;8;0;12725;0;0;0;0;9;0;6027;0;0;0;0
27.01.21;23:05:00;1;369;15473;0;2;0;8299;0;0;0;0;3;0;4467;0;0;0;0;4;0;5890;0;0;0;0;5;0;0;0;0;0;0;0;0;6;0;15952;0;0;0;0;0;0;7;0;14906;0;0;0;0;8;0;12725;0;0;0;0;9;0;6027;0;0;0;0
27.01.21;23:00:00;1;369;15442;0;2;0;8299;0;0;0;0;3;0;4467;0;0;0;0;4;0;5890;0;0;0;0;5;0;0;0;0;0;0;0;0;6;0;15952;0;0;0;0;0;0;7;0;14906;0;0;0;0;8;0;12725;0;0;0;0;9;0;6027;0;0;0;0
27.01.21;22:55:00;1;421;15411;0;2;0;8299;0;0;0;0;3;0;4467;0;0;0;0;4;0;5890;0;0;0;0;5;0;0;0;0;0;0;0;0;6;0;15952;2;0;0;0;0;0;7;0;14906;0;0;0;0;8;0;12725;0;0;0;0;9;0;6027;0;0;0;0
27.01.21;22:50:00;1;712;15376;0;2;0;8299;0;0;0;0;3;0;4467;0;0;0;0;4;0;5890;0;0;0;0;5;0;0;0;0;0;0;0;0;6;0;15952;2;0;0;0;0;0;7;0;14906;0;0;0;0;8;0;12725;0;0;0;0;9;0;6027;0;0;0;0
27.01.21;22:45:00;1;352;15311;0;2;0;8299;0;0;0;0;3;0;4467;0;0;0;0;4;0;5890;0;0;0;0;5;0;0;0;0;0;0;0;0;6;0;15952;2;0;0;0;0;0;7;0;14906;0;0;0;0;8;0;12725;0;0;0;0;9;0;6027;0;0;0;0
27.01.21;22:40:00;1;418;15281;0;2;0;8299;0;0;0;0;3;0;4467;0;0;0;0;4;0;5890;0;0;0;0;5;0;0;0;0;0;0;0;0;6;0;15952;2;0;0;0;0;0;7;0;14906;0;0;0;0;8;0;12725;0;0;0;0;9;0;6027;0;0;0;0
27.01.21;22:35:00;1;427;15247;0;2;0;8299;0;0;0;0;3;0;4467;0;0;0;0;4;0;5890;0;0;0;0;5;0;0;0;0;0;0;0;0;6;0;15952;2;0;0;0;0;0;7;0;14906;0;0;0;0;8;0;12725;0;0;0;0;9;0;6027;0;0;0;0
27.01.21;22:30:00;1;486;15210;0;2;0;8299;0;0;0;0;3;0;4467;0;0;0;0;4;0;5890;0;0;0;0;5;0;0;0;0;0;0;0;0;6;0;15952;2;0;0;0;0;0;7;0;14906;0;0;0;0;8;0;12725;0;0;0;0;9;0;6027;0;0;0;0
27.01.21;22:25:00;1;509;15170;0;2;0;8299;0;0;0;0;3;0;4467;0;0;0;0;4;0;5890;0;0;0;0;5;0;0;0;0;0;0;0;0;6;0;15952;2;0;0;0;0;0;7;0;14906;0;0;0;0;8;0;12725;0;0;0;0;9;0;6027;0;0;0;0
27.01.21;22:20:00;1;506;15128;0;2;0;8299;0;0;0;0;3;0;4467;0;0;0;0;4;0;5890;0;0;0;0;5;0;0;0;0;0;0;0;0;6;0;15952;2;0;0;0;0;0;7;0;14906;0;0;0;0;8;0;12725;0;0;0;0;9;0;6027;0;0;0;0
27.01.21;22:15:00;1;715;15086;0;2;0;8299;0;0;0;0;3;0;4467;0;0;0;0;4;0;5890;0;0;0;0;5;0;0;0;0;0;0;0;0;6;0;15952;2;0;0;0;0;0;7;0;14906;0;0;0;0;8;0;12725;0;0;0;0;9;0;6027;0;0;0;0
27.01.21;22:10:00;1;544;15009;0;2;0;8299;0;0;0;0;3;0;4467;0;0;0;0;4;0;5890;0;0;0;0;5;0;0;0;0;0;0;0;0;6;0;15952;2;0;0;0;0;0;7;0;14906;0;0;0;0;8;0;12725;0;0;0;0;9;0;6027;0;0;0;0
27.01.21;22:05:00;1;605;14964;0;2;0;8299;0;0;0;0;3;0;4467;0;0;0;0;4;0;5890;0;0;0;0;5;0;0;0;0;0;0;0;0;6;0;15952;2;0;0;0;0;0;7;0;14906;0;0;0;0;8;0;12725;0;0;0;0;9;0;6027;0;0;0;0
27.01.21;22:00:00;1;2852;14913;0;2;0;8299;0;0;0;0;3;0;4467;0;0;0;0;4;0;5890;0;0;0;0;5;0;0;0;0;0;0;0;0;6;0;15952;2;0;0;0;0;0;7;0;14906;0;0;0;0;8;0;12725;0;0;0;0;9;0;6027;0;0;0;0
27.01.21;21:55:00;1;975;14684;0;2;0;8299;0;0;0;0;3;0;4467;0;0;0;0;4;0;5890;0;0;0;0;5;0;0;0;0;0;0;0;0;6;0;15952;2;0;0;0;0;0;7;0;14906;0;0;0;0;8;0;12725;0;0;0;0;9;0;6027;0;0;0;0
27.01.21;21:50:00;1;557;14627;0;2;0;8299;0;0;0;0;3;0;4467;0;0;0;0;4;0;5890;0;0;0;0;5;0;0;0;0;0;0;0;0;6;0;15952;2;0;0;0;0;0;7;0;14906;0;0;0;0;8;0;12725;0;0;0;0;9;0;6027;0;0;0;0
27.01.21;21:45:00;1;980;14581;0;2;0;8299;0;0;0;0;3;0;4467;0;0;0;0;4;0;5890;0;0;0;0;5;0;0;0;0;0;0;0;0;6;0;15952;2;0;0;0;0;0;7;0;14906;0;0;0;0;8;0;12725;0;0;0;0;9;0;6027;0;0;0;0
27.01.21;21:40:00;1;558;14502;0;2;0;8299;0;0;0;0;3;0;4467;0;0;0;0;4;0;5890;0;0;0;0;5;0;0;0;0;0;0;0;0;6;0;15952;2;0;0;0;0;0;7;0;14906;0;0;0;0;8;0;12725;0;0;0;0;9;0;6027;0;0;0;0
27.01.21;21:35:00;1;536;14455;0;2;0;8299;0;0;0;0;3;0;4467;0;0;0;0;4;0;5890;0;0;0;0;5;0;0;0;0;0;0;0;0;6;0;15952;2;0;0;0;0;0;7;0;14906;0;0;0;0;8;0;12725;0;0;0;0;9;0;6027;0;0;0;0
27.01.21;21:30:00;1;500;14410;0;2;0;8299;0;0;0;0;3;0;4467;0;0;0;0;4;0;5890;0;0;0;0;5;0;0;0;0;0;0;0;0;6;0;15952;2;0;0;0;0;0;7;0;14906;0;0;0;0;8;0;12725;0;0;0;0;9;0;6027;0;0;0;0
27.01.21;21:25:00;1;561;14368;0;2;0;8299;0;0;0;0;3;0;4467;0;0;0;0;4;0;5890;0;0;0;0;5;0;0;0;0;0;0;0;0;6;0;15952;2;0;0;0;0;0;7;0;14906;0;0;0;0;8;0;12725;0;0;0;0;9;0;6027;0;0;0;0
27.01.21;21:20:00;1;567;14321;0;2;0;8299;0;0;0;0;3;0;4467;0;0;0;0;4;0;5890;0;0;0;0;5;0;0;0;0;0;0;0;0;6;0;15952;2;0;0;0;0;0;7;0;14906;0;0;0;0;8;0;12725;0;0;0;0;9;0;6027;0;0;0;0
27.01.21;21:15:00;1;579;14275;0;2;0;8299;0;0;0;0;3;0;4467;0;0;0;0;4;0;5890;0;0;0;0;5;0;0;0;0;0;0;0;0;6;0;15952;2;0;0;0;0;0;7;0;14906;0;0;0;0;8;0;12725;0;0;0;0;9;0;6027;0;0;0;0
27.01.21;21:10:00;1;532;14227;0;2;0;8299;0;0;0;0;3;0;4467;0;0;0;0;4;0;5890;0;0;0;0;5;0;0;0;0;0;0;0;0;6;0;15952;2;0;0;0;0;0;7;0;14906;0;0;0;0;8;0;12725;0;0;0;0;9;0;6027;0;0;0;0
27.01.21;21:05:00;1;1157;14181;0;2;0;8299;0;0;0;0;3;0;4467;0;0;0;0;4;0;5890;0;0;0;0;5;0;0;0;0;0;0;0;0;6;0;15952;2;0;0;0;0;0;7;0;14906;0;0;0;0;8;0;12725;0;0;0;0;9;0;6027;0;0;0;0
27.01.21;21:00:00;1;528;14105;0;2;0;8299;0;0;0;0;3;0;4467;0;0;0;0;4;0;5890;0;0;0;0;5;0;0;0;0;0;0;0;0;6;0;15952;2;0;0;0;0;0;7;0;14906;0;0;0;0;8;0;12725;0;0;0;0;9;0;6027;0;0;0;0
27.01.21;20:55:00;1;585;14061;0;2;0;8299;0;0;0;0;3;0;4467;0;0;0;0;4;0;5890;0;0;0;0;5;0;0;0;0;0;0;0;0;6;0;15952;2;0;0;0;0;0;7;0;14906;0;0;0;0;8;0;12725;0;0;0;0;9;0;6027;0;0;0;0
27.01.21;20:50:00;1;557;14014;0;2;0;8299;0;0;0;0;3;0;4467;0;0;0;0;4;0;5890;0;0;0;0;5;0;0;0;0;0;0;0;0;6;0;15952;2;0;0;0;0;0;7;0;14906;0;0;0;0;8;0;12725;0;0;0;0;9;0;6027;0;0;0;0
27.01.21;20:45:00;1;528;13967;0;2;0;8299;0;0;0;0;3;0;4467;0;0;0;0;4;0;5890;0;0;0;0;5;0;0;0;0;0;0;0;0;6;0;15952;2;0;0;0;0;0;7;0;14906;0;0;0;0;8;0;12725;0;0;0;0;9;0;6027;0;0;0;0
27.01.21;20:40:00;1;551;13923;0;2;0;8299;0;0;0;0;3;0;4467;0;0;0;0;4;0;5890;0;0;0;0;5;0;0;0;0;0;0;0;0;6;0;15952;2;0;0;0;0;0;7;0;14906;0;0;0;0;8;0;12725;0;0;0;0;9;0;6027;0;0;0;0
27.01.21;20:35:00;1;621;13876;0;2;0;8299;0;0;0;0;3;0;4467;0;0;0;0;4;0;5890;0;0;0;0;5;0;0;0;0;0;0;0;0;6;0;15952;2;0;0;0;0;0;7;0;14906;0;0;0;0;8;0;12725;0;0;0;0;9;0;6027;0;0;0;0
27.01.21;20:30:00;1;659;13825;0;2;0;8299;0;0;0;0;3;0;4467;0;0;0;0;4;0;5890;0;0;0;0;5;0;0;0;0;0;0;0;0;6;0;15952;2;0;0;0;0;0;7;0;14906;0;0;0;0;8;0;12725;0;0;0;0;9;0;6027;0;0;0;0
27.01.21;20:25:00;1;981;13769;0;2;0;8299;0;0;0;0;3;0;4467;0;0;0;0;4;0;5890;0;0;0;0;5;0;0;0;0;0;0;0;0;6;0;15952;2;0;0;0;0;0;7;0;14906;0;0;0;0;8;0;12725;0;0;0;0;9;0;6027;0;0;0;0
27.01.21;20:20:00;1;504;13691;0;2;0;8299;0;0;0;0;3;0;4467;0;0;0;0;4;0;5890;0;0;0;0;5;0;0;0;0;0;0;0;0;6;0;15952;2;0;0;0;0;0;7;0;14906;0;0;0;0;8;0;12725;0;0;0;0;9;0;6027;0;0;0;0
27.01.21;20:15:00;1;475;13648;0;2;0;8299;0;0;0;0;3;0;4467;0;0;0;0;4;0;5890;0;0;0;0;5;0;0;0;0;0;0;0;0;6;0;15952;2;0;0;0;0;0;7;0;14906;0;0;0;0;8;0;12725;0;0;0;0;9;0;6027;0;0;0;0
27.01.21;20:10:00;1;484;13608;0;2;0;8299;0;0;0;0;3;0;4467;0;0;0;0;4;0;5890;0;0;0;0;5;0;0;0;0;0;0;0;0;6;0;15952;2;0;0;0;0;0;7;0;14906;0;0;0;0;8;0;12725;0;0;0;0;9;0;6027;0;0;0;0
27.01.21;20:05:00;1;532;13568;0;2;0;8299;0;0;0;0;3;0;4467;0;0;0;0;4;0;5890;0;0;0;0;5;0;0;0;0;0;0;0;0;6;0;15952;2;0;0;0;0;0;7;0;14906;0;0;0;0;8;0;12725;0;0;0;0;9;0;6027;0;0;0;0
27.01.21;20:00:00;1;564;13524;0;2;0;8299;0;0;0;0;3;0;4467;0;0;0;0;4;0;5890;0;0;0;0;5;0;0;0;0;0;0;0;0;6;0;15952;2;0;0;0;0;0;7;0;14906;0;0;0;0;8;0;12725;0;0;0;0;9;0;6027;0;0;0;0
27.01.21;19:55:00;1;515;13480;0;2;0;8299;0;0;0;0;3;0;4467;0;0;0;0;4;0;5890;0;0;0;0;5;0;0;0;0;0;0;0;0;6;0;15952;2;0;0;0;0;0;7;0;14906;0;0;0;0;8;0;12725;0;0;0;0;9;0;6027;0;0;0;0
27.01.21;19:50:00;1;516;13437;0;2;0;8299;0;0;0;0;3;0;4467;0;0;0;0;4;0;5890;0;0;0;0;5;0;0;0;0;0;0;0;0;6;0;15952;2;0;0;0;0;0;7;0;14906;0;0;0;0;8;0;12725;0;0;0;0;9;0;6027;0;0;0;0
27.01.21;19:45:00;1;541;13394;0;2;0;8299;0;0;0;0;3;0;4467;0;0;0;0;4;0;5890;0;0;0;0;5;0;0;0;0;0;0;0;0;6;0;15952;2;0;0;0;0;0;7;0;14906;0;0;0;0;8;0;12725;0;0;0;0;9;0;6027;0;0;0;0
27.01.21;19:40:00;1;637;13319;0;2;0;8299;0;0;0;0;3;0;4467;0;0;0;0;4;0;5890;0;0;0;0;5;0;0;0;0;0;0;0;0;6;0;15952;2;0;0;0;0;0;7;0;14906;0;0;0;0;8;0;12725;0;0;0;0;9;0;6027;0;0;0;0
27.01.21;19:35:00;1;813;13266;0;2;0;8299;0;0;0;0;3;0;4467;0;0;0;0;4;0;5890;0;0;0;0;5;0;0;0;0;0;0;0;0;6;0;15952;0;0;0;0;0;0;7;0;14906;0;0;0;0;8;0;12725;0;0;0;0;9;0;6027;0;0;0;0
27.01.21;19:30:00;1;1067;13200;0;2;0;8299;0;0;0;0;3;0;4467;0;0;0;0;4;0;5890;0;0;0;0;5;0;0;0;0;0;0;0;0;6;0;15952;2;0;0;0;0;0;7;0;14906;0;0;0;0;8;0;12725;0;0;0;0;9;0;6027;0;0;0;0
27.01.21;19:25:00;1;1188;13112;0;2;0;8299;0;0;0;0;3;0;4467;0;0;0;0;4;0;5890;0;0;0;0;5;0;0;0;0;0;0;0;0;6;0;15952;2;0;0;0;0;0;7;0;14906;0;0;0;0;8;0;12725;0;0;0;0;9;0;6027;0;0;0;0
27.01.21;19:20:00;1;957;13018;0;2;0;8299;0;0;0;0;3;0;4467;0;0;0;0;4;0;5890;0;0;0;0;5;0;0;0;0;0;0;0;0;6;0;15952;2;0;0;0;0;0;7;0;14906;0;0;0;0;8;0;12725;0;0;0;0;9;0;6027;0;0;0;0
27.01.21;19:15:00;1;897;12939;0;2;0;8299;0;0;0;0;3;0;4467;0;0;0;0;4;0;5890;0;0;0;0;5;0;0;0;0;0;0;0;0;6;0;15952;2;0;0;0;0;0;7;0;14906;0;0;0;0;8;0;12725;0;0;0;0;9;0;6027;0;0;0;0
27.01.21;19:10:00;1;1233;12867;0;2;0;8299;0;0;0;0;3;0;4467;0;0;0;0;4;0;5890;0;0;0;0;5;0;0;0;0;0;0;0;0;6;0;15952;2;0;0;0;0;0;7;0;14906;0;0;0;0;8;0;12725;0;0;0;0;9;0;6027;0;0;0;0
27.01.21;19:05:00;1;884;12755;0;2;0;8299;0;0;0;0;3;0;4467;0;0;0;0;4;0;5890;0;0;0;0;5;0;0;0;0;0;0;0;0;6;0;15952;2;0;0;0;0;0;7;0;14906;0;0;0;0;8;0;12725;0;0;0;0;9;0;6027;0;0;0;0
27.01.21;19:00:00;1;904;12682;0;2;0;8299;0;0;0;0;3;0;4467;0;0;0;0;4;0;5890;0;0;0;0;5;0;0;0;0;0;0;0;0;6;0;15952;2;0;0;0;0;0;7;0;14906;0;0;0;0;8;0;12725;0;0;0;0;9;0;6027;0;0;0;0
27.01.21;18:55:00;1;1275;12607;0;2;0;8299;0;0;0;0;3;0;4467;0;0;0;0;4;0;5890;0;0;0;0;5;0;0;0;0;0;0;0;0;6;0;15952;2;0;0;0;0;0;7;0;14906;0;0;0;0;8;0;12725;0;0;0;0;9;0;6027;0;0;0;0
27.01.21;18:50:00;1;886;12499;0;2;0;8299;0;0;0;0;3;0;4467;0;0;0;0;4;0;5890;0;0;0;0;5;0;0;0;0;0;0;0;0;6;0;15952;2;0;0;0;0;0;7;0;14906;0;0;0;0;8;0;12725;0;0;0;0;9;0;6027;0;0;0;0
27.01.21;18:45:00;1;874;12424;0;2;0;8299;0;0;0;0;3;0;4467;0;0;0;0;4;0;5890;0;0;0;0;5;0;0;0;0;0;0;0;0;6;0;15952;2;0;0;0;0;0;7;0;14906;0;0;0;0;8;0;12725;0;0;0;0;9;0;6027;0;0;0;0
27.01.21;18:40:00;1;1272;12348;0;2;0;8299;0;0;0;0;3;0;4467;0;0;0;0;4;0;5890;0;0;0;0;5;0;0;0;0;0;0;0;0;6;0;15952;2;0;0;0;0;0;7;0;14906;0;0;0;0;8;0;12725;0;0;0;0;9;0;6027;0;0;0;0
27.01.21;18:35:00;1;902;12236;0;2;0;8299;0;0;0;0;3;0;4467;0;0;0;0;4;0;5890;0;0;0;0;5;0;0;0;0;0;0;0;0;6;0;15952;2;0;0;0;0;0;7;0;14906;0;0;0;0;8;0;12725;0;0;0;0;9;0;6027;0;0;0;0
27.01.21;18:30:00;1;892;12164;0;2;0;8299;0;0;0;0;3;0;4467;0;0;0;0;4;0;5890;0;0;0;0;5;0;0;0;0;0;0;0;0;6;0;15952;2;0;0;0;0;0;7;0;14906;0;0;0;0;8;0;12725;0;0;0;0;9;0;6027;0;0;0;0
27.01.21;18:25:00;1;1233;12091;0;2;0;8299;0;0;0;0;3;0;4467;0;0;0;0;4;0;5890;0;0;0;0;5;0;0;0;0;0;0;0;0;6;0;15952;2;0;0;0;0;0;7;0;14906;0;0;0;0;8;0;12725;0;0;0;0;9;0;6027;0;0;0;0
27.01.21;18:20:00;1;763;11986;0;2;0;8299;0;0;0;0;3;0;4467;0;0;0;0;4;0;5890;0;0;0;0;5;0;0;0;0;0;0;0;0;6;0;15952;2;0;0;0;0;0;7;0;14906;0;0;0;0;8;0;12725;0;0;0;0;9;0;6027;0;0;0;0
27.01.21;18:15:00;1;802;11923;0;2;0;8299;0;0;0;0;3;0;4467;0;0;0;0;4;0;5890;0;0;0;0;5;0;0;0;0;0;0;0;0;6;0;15952;2;0;0;0;0;0;7;0;14906;0;0;0;0;8;0;12725;0;0;0;0;9;0;6027;0;0;0;0
27.01.21;18:10:00;1;1062;11856;0;2;0;8299;0;0;0;0;3;0;4467;0;0;0;0;4;0;5890;0;0;0;0;5;0;0;0;0;0;0;0;0;6;0;15952;2;0;0;0;0;0;7;0;14906;0;0;0;0;8;0;12725;0;0;0;0;9;0;6027;0;0;0;0
27.01.21;18:05:00;1;956;11749;0;2;0;8299;0;0;0;0;3;0;4467;0;0;0;0;4;0;5890;0;0;0;0;5;0;0;0;0;0;0;0;0;6;0;15952;2;0;0;0;0;0;7;0;14906;0;0;0;0;8;0;12725;0;0;0;0;9;0;6027;0;0;0;0
27.01.21;18:00:00;1;1048;11675;0;2;0;8299;0;0;0;0;3;0;4467;0;0;0;0;4;0;5890;0;0;0;0;5;0;0;0;0;0;0;0;0;6;0;15952;2;0;0;0;0;0;7;0;14906;0;0;0;0;8;0;12725;0;0;0;0;9;0;6027;0;0;0;0
27.01.21;17:55:00;1;1142;11592;0;2;0;8299;0;0;0;0;3;0;4467;0;0;0;0;4;0;5890;0;0;0;0;5;0;0;0;0;0;0;0;0;6;0;15952;2;0;0;0;0;0;7;0;14906;0;0;0;0;8;0;12725;0;0;0;0;9;0;6027;0;0;0;0
27.01.21;17:50:00;1;650;11482;0;2;0;8299;0;0;0;0;3;0;4467;0;0;0;0;4;0;5890;0;0;0;0;5;0;0;0;0;0;0;0;0;6;0;15952;2;0;0;0;0;0;7;0;14906;0;0;0;0;8;0;12725;0;0;0;0;9;0;6027;0;0;0;0
27.01.21;17:45:00;1;591;11427;0;2;0;8299;0;0;0;0;3;0;4467;0;0;0;0;4;0;5890;0;0;0;0;5;0;0;0;0;0;0;0;0;6;0;15952;2;0;0;0;0;0;7;0;14906;0;0;0;0;8;0;12725;0;0;0;0;9;0;6027;0;0;0;0
27.01.21;17:40:00;1;1471;11357;0;2;0;8299;0;0;0;0;3;0;4467;0;0;0;0;4;0;5890;0;0;0;0;5;0;0;0;0;0;0;0;0;6;0;15952;2;0;0;0;0;0;7;0;14906;0;0;0;0;8;0;12725;0;0;0;0;9;0;6027;0;0;0;0
27.01.21;17:35:00;1;1195;11240;0;2;0;8299;0;0;0;0;3;0;4467;0;0;0;0;4;0;5890;0;0;0;0;5;0;0;0;0;0;0;0;0;6;0;15952;2;0;0;0;0;0;7;0;14906;0;0;0;0;8;0;12725;0;0;0;0;9;0;6027;0;0;0;0
27.01.21;17:30:00;1;849;11138;0;2;0;8299;0;0;0;0;3;0;4467;0;0;0;0;4;0;5890;0;0;0;0;5;0;0;0;0;0;0;0;0;6;0;15952;2;0;0;0;0;0;7;0;14906;0;0;0;0;8;0;12725;0;0;0;0;9;0;6027;0;0;0;0
27.01.21;17:25:00;1;644;11061;0;2;0;8299;0;0;0;0;3;0;4467;0;0;0;0;4;0;5890;0;0;0;0;5;0;0;0;0;0;0;0;0;6;0;15952;2;0;0;0;0;0;7;0;14906;0;0;0;0;8;0;12725;0;0;0;0;9;0;6027;0;0;0;0
27.01.21;17:20:00;1;511;11009;0;2;0;8299;0;0;0;0;3;0;4467;0;0;30;1;4;0;5890;0;0;0;0;5;0;0;0;0;0;0;0;0;6;0;15952;2;0;0;0;0;0;7;0;14906;0;0;0;0;8;0;12725;0;0;0;0;9;0;6027;0;0;0;0
27.01.21;17:15:00;1;1469;10966;0;2;0;8299;0;0;186;7;3;0;4467;6;0;283;13;4;0;5890;0;0;0;0;5;0;0;0;0;0;0;0;0;6;0;15952;2;0;0;0;0;0;7;0;14906;0;0;0;0;8;0;12725;0;0;0;0;9;0;6027;0;0;0;0
27.01.21;17:10:00;1;1024;10862;0;2;0;8299;6;0;307;10;3;0;4467;6;0;356;14;4;0;5890;0;0;66;7;5;0;0;0;0;0;0;0;0;6;0;15952;0;0;0;0;0;1;7;0;14906;0;0;0;0;8;0;12725;0;0;0;0;9;0;6027;0;0;0;0
27.01.21;17:05:00;1;917;10776;0;2;0;8299;6;0;347;11;3;0;4467;6;0;427;14;4;0;5890;1;0;111;8;5;0;0;0;0;0;0;0;0;6;0;15952;23;10;0;180;407;20;7;0;14906;0;0;50;2;8;0;12725;0;0;100;4;9;0;6027;0;0;160;5
27.01.21;17:00:00;1;910;10702;0;2;0;8299;6;0;371;11;3;0;4467;3;3;417;14;4;0;5890;1;0;144;8;5;0;0;0;0;0;0;0;0;6;0;15952;23;7;1;492;235;20;7;0;14906;6;0;285;13;8;0;12725;6;0;292;12;9;0;6027;6;0;309;9
27.01.21;16:55:00;1;1366;10624;0;2;0;8299;6;0;387;11;3;0;4467;6;2;452;14;4;0;5890;1;0;174;9;5;0;0;0;0;0;0;0;0;6;0;15952;23;10;2;246;498;20;7;0;14906;6;0;339;13;8;0;12725;6;0;346;13;9;0;6027;6;0;366;9
27.01.21;16:50:00;1;790;10523;0;2;0;8299;6;0;406;11;3;1;4467;6;3;495;14;4;0;5890;1;0;213;9;5;0;0;0;0;0;0;0;0;6;0;15952;23;11;0;321;586;21;7;0;14906;6;0;406;13;8;0;12725;6;0;418;13;9;0;6027;4;0;421;9
27.01.21;16:45:00;1;762;10456;0;2;1;8299;6;5;406;12;3;1;4467;6;4;507;15;4;0;5890;3;0;204;9;5;0;0;0;0;0;0;0;0;6;0;15952;23;8;0;527;595;21;7;0;14906;3;1;419;14;8;0;12725;4;1;437;13;9;1;6027;6;1;473;9
27.01.21;16:40:00;1;723;10393;0;2;1;8299;6;5;409;12;3;2;4467;6;4;512;15;4;0;5890;3;0;212;10;5;0;0;0;0;0;0;0;0;6;0;15952;8;8;0;430;598;22;7;1;14906;6;1;441;14;8;0;12725;3;5;413;13;9;1;6027;6;3;463;9
27.01.21;16:35:00;1;1508;10333;0;2;1;8299;6;7;409;12;3;2;4467;6;4;515;15;4;0;5890;3;0;224;10;5;0;0;0;0;0;0;0;0;6;15;15952;1;11;5;562;538;22;7;0;14906;6;1;441;14;8;0;12725;6;3;431;14;9;1;6027;6;1;490;10
27.01.21;16:30:00;1;614;10212;0;2;3;8298;6;8;417;13;3;2;4467;3;10;502;15;4;0;5890;3;0;230;10;5;0;0;0;0;0;0;0;0;6;9;15950;4;12;3;575;576;22;7;1;14906;6;3;461;15;8;2;12725;6;5;444;14;9;2;6027;6;5;484;10
27.01.21;16:25:00;1;626;10162;0;2;5;8298;6;11;420;13;3;2;4466;6;8;528;15;4;0;5890;3;0;199;11;5;0;0;0;0;0;0;0;0;6;44;15949;1;31;12;492;292;24;7;1;14906;6;5;472;15;8;5;12725;6;10;448;14;9;0;6026;6;0;549;10
27.01.21;16:20:00;1;1178;10110;0;2;42;8298;6;67;380;14;3;3;4466;6;8;543;16;4;11;5890;3;12;199;11;5;0;0;0;0;0;0;0;0;6;67;15945;4;52;23;456;211;24;7;0;14906;6;0;511;15;8;1;12724;6;7;491;15;9;4;6026;4;10;511;10
27.01.21;16:15:00;1;652;10019;0;2;74;8295;4;107;371;14;3;6;4466;6;12;553;16;4;28;5889;3;29;198;11;5;0;0;0;0;0;0;0;0;6;87;15939;4;66;30;456;211;24;7;45;14906;4;75;356;16;8;37;12724;6;66;435;15;9;3;6026;3;5;459;9
27.01.21;16:10:00;1;601;9966;0;2;95;8289;4;128;370;14;3;8;4465;6;13;559;16;4;46;5887;3;47;197;11;5;0;0;0;0;0;0;0;0;6;101;15932;4;76;36;456;212;24;7;66;14902;4;105;432;16;8;64;12721;4;103;446;15;9;12;6026;6;20;536;11
27.01.21;16:05:00;1;1049;9917;0;2;111;8281;4;145;387;14;3;51;4465;6;85;509;17;4;57;5884;3;59;197;11;5;0;0;0;0;0;0;0;0;6;115;15923;4;67;29;456;212;24;7;89;14896;4;122;442;16;8;89;12716;4;124;444;16;9;15;6025;6;23;542;11
27.01.21;16:00:00;1;545;9835;0;2;121;8271;4;155;384;15;3;67;4460;4;106;479;17;4;62;5879;3;65;198;12;5;0;0;0;0;0;0;0;0;6;123;15913;4;92;39;456;212;24;7;92;14889;4;131;460;16;8;92;12709;4;132;458;16;9;13;6024;6;20;551;11
27.01.21;15:55:00;1;541;9789;0;2;126;8261;4;161;382;15;3;72;4455;4;112;488;17;4;68;5873;3;71;198;12;5;0;0;0;0;0;0;0;0;6;130;15903;4;89;39;456;211;24;7;101;14881;4;139;446;17;8;110;12701;4;140;423;16;9;7;6023;6;12;571;12
27.01.21;15:50:00;1;1089;9743;0;2;162;8251;4;200;376;16;3;93;4449;4;133;508;18;4;106;5868;3;111;223;12;5;0;0;0;0;0;0;0;0;6;161;15892;4;110;49;456;212;24;7;151;14873;4;184;423;17;8;147;12692;4;186;439;16;9;76;6022;6;105;477;12
27.01.21;15:45:00;1;556;9660;0;2;189;8237;4;225;389;16;3;110;4441;4;152;515;18;4;130;5859;5;135;233;12;5;0;0;0;0;0;0;0;0;6;179;15878;4;122;56;456;212;24;7;175;14860;4;212;411;17;8;174;12680;4;217;470;17;9;95;6016;4;123;494;13
27.01.21;15:40:00;1;547;9614;0;2;190;8222;4;230;385;16;3;108;4432;4;151;521;18;4;133;5848;5;139;233;13;5;0;0;0;0;0;0;0;0;6;184;15863;4;138;63;456;212;24;7;184;14846;4;217;413;17;8;180;12666;4;219;424;17;9;94;6008;4;125;494;13
27.01.21;15:35:00;1;1223;9569;0;2;214;8206;4;253;393;17;3;130;4423;4;169;496;18;4;149;5837;5;156;236;13;5;0;0;0;0;0;0;0;0;6;226;15848;4;147;92;456;280;24;7;217;14830;4;253;437;18;8;221;12651;4;257;461;17;9;111;6000;4;145;513;13
27.01.21;15:30:00;1;553;9490;0;2;221;8188;4;262;400;17;3;134;4412;4;173;491;19;4;164;5825;5;171;232;13;5;0;0;0;0;0;0;0;0;6;332;15828;4;166;179;521;543;24;7;226;14813;4;271;446;18;8;228;12632;4;274;464;18;9;119;5991;4;152;528;14
27.01.21;15:25:00;1;567;9445;0;2;290;8170;4;333;402;18;3;177;4401;4;218;509;19;4;228;5811;5;237;238;14;5;0;0;0;0;0;0;0;0;6;460;15800;4;246;246;591;564;24;7;316;14794;4;359;470;18;8;307;12613;4;351;485;18;9;165;5981;4;197;530;14
27.01.21;15:20:00;1;1121;9397;0;2;458;8145;4;509;411;19;3;283;4386;4;331;519;20;4;377;5792;5;393;242;14;5;0;0;0;0;0;0;0;0;6;683;15760;4;356;352;594;583;25;7;519;14767;4;568;473;19;8;516;12587;4;564;480;18;9;272;5967;4;312;536;15
27.01.21;15:15:00;1;624;9308;0;2;591;8107;4;643;410;20;3;366;4362;4;415;510;20;4;487;5760;5;508;249;14;5;0;0;0;0;0;0;0;0;6;849;15702;4;425;425;599;584;25;7;674;14724;4;729;483;19;8;668;12544;4;726;490;18;9;357;5944;4;402;534;15
27.01.21;15:10:00;1;605;9255;0;2;673;8057;4;731;415;20;3;425;4331;4;476;522;20;4;563;5720;5;586;244;15;5;0;0;0;0;0;0;0;0;6;937;15630;4;488;483;603;578;25;7;776;14668;4;834;487;19;8;780;12489;4;833;483;19;9;419;5914;4;464;539;16
27.01.21;15:05:00;1;828;9206;0;2;712;8001;4;772;413;21;3;447;4296;4;504;526;21;4;593;5673;5;618;245;15;5;0;0;0;0;0;0;0;0;6;972;15551;4;502;497;607;580;25;7;846;14603;4;893;481;20;8;830;12423;4;889;481;19;9;447;5879;4;495;544;16
27.01.21;15:00:00;1;790;9127;0;2;826;7942;4;890;413;22;3;518;4259;4;577;526;21;4;661;5623;5;688;244;15;5;0;0;0;0;0;0;0;0;6;1090;15470;4;562;537;602;574;25;7;950;14532;4;1044;483;20;8;966;12354;4;1028;482;20;9;514;5842;4;566;537;17
27.01.21;14:55:00;1;579;9076;0;2;1111;7874;4;1183;413;23;3;702;4216;4;765;525;22;4;840;5568;5;875;252;16;5;0;0;0;0;0;0;0;0;6;1408;15378;4;720;696;602;582;25;7;1359;14453;4;1428;491;21;8;1337;12274;4;1410;484;20;9;710;5799;4;771;546;17
27.01.21;14:50:00;1;844;9031;0;2;1443;7780;4;1530;412;24;3;898;4157;4;969;540;22;4;981;5498;5;1022;254;16;5;0;0;0;0;0;0;0;0;6;1730;15258;4;893;860;613;582;25;7;1763;14339;4;1858;484;21;8;1735;12162;4;1824;479;20;9;926;5739;4;999;541;18
27.01.21;14:45:00;1;1046;8977;0;2;1829;7661;4;1931;418;24;3;1165;4083;4;1248;535;23;4;1145;5417;5;1192;253;16;5;0;0;0;0;0;0;0;0;6;2187;15110;4;1108;1088;619;587;25;7;2333;14194;4;2442;485;21;8;2259;12020;4;2373;474;21;9;1220;5664;4;1304;546;18
27.01.21;14:40:00;1;548;8904;0;2;2015;7506;4;2125;421;24;3;1300;3983;4;1388;538;23;4;1231;5320;5;1283;256;16;5;0;0;0;0;0;0;0;0;6;2465;14926;4;1245;1205;617;588;26;7;2591;13998;4;2709;485;21;8;2548;11829;4;2671;482;21;9;1401;5561;4;1490;538;18
27.01.21;14:35:00;1;567;8859;0;2;1968;7341;4;2078;425;25;3;1262;3876;4;1350;533;23;4;1252;5218;5;1304;256;16;5;0;0;0;0;0;0;0;0;6;2446;14726;4;1271;1220;617;585;26;7;2582;13781;4;2708;502;21;8;2582;11620;4;2697;489;21;9;1414;5447;4;1504;551;18
27.01.21;14:30:00;1;983;8812;0;2;1982;7179;4;2090;425;24;3;1274;3772;4;1359;531;22;4;1292;5114;5;1346;253;16;5;0;0;0;0;0;0;0;0;6;2562;14522;4;1343;1306;619;596;26;7;2626;13568;4;2746;497;22;8;2574;11406;4;2705;488;21;9;1406;5329;4;1497;545;18
27.01.21;14:25:00;1;609;8730;0;2;1388;7015;4;1470;416;24;3;891;3667;4;961;533;22;4;1054;5007;5;1098;249;17;5;0;0;0;0;0;0;0;0;6;1884;14311;4;971;937;609;586;26;7;1775;13350;4;1874;483;22;8;1776;11193;4;1865;494;21;9;962;5213;4;1035;537;18
27.01.21;14:20:00;1;587;8682;0;2;2077;6898;4;2189;419;26;3;1308;3592;4;1395;529;23;4;1332;4919;5;1387;245;17;5;0;0;0;0;0;0;0;0;6;2548;14156;4;1314;1275;614;586;26;7;2581;13202;4;2700;497;22;8;2530;11044;4;2657;502;21;9;1374;5132;4;1466;554;19
27.01.21;14:15:00;1;1092;8635;0;2;2491;6725;4;2624;421;26;3;1621;3483;4;1721;542;23;4;1554;4808;5;1619;250;17;5;0;0;0;0;0;0;0;0;6;3188;13928;4;1665;1603;610;587;26;7;3329;12988;4;3489;490;22;8;3266;10834;4;3421;497;21;9;1770;5020;4;1871;526;19
27.01.21;14:10:00;1;549;8555;0;2;2061;6517;4;2174;421;26;3;1329;3348;4;1418;544;23;4;1356;4678;5;1412;245;17;5;0;0;0;0;0;0;0;0;6;2737;13671;4;1418;1359;613;591;26;7;2543;12708;4;2668;505;22;8;2425;10559;4;2551;509;21;9;1351;4869;4;1430;496;18
27.01.21;14:05:00;1;539;8511;0;2;1968;6345;4;2073;417;26;3;1278;3237;4;1362;542;23;4;1276;4565;5;1329;249;17;5;0;0;0;0;0;0;0;0;6;2618;13443;4;1357;1307;614;589;26;7;2568;12496;4;2689;491;22;8;2541;10357;4;2662;509;22;9;1306;4756;4;1392;551;19
27.01.21;14:00:00;1;1245;8466;0;2;2044;6181;4;2154;421;26;3;1314;3130;4;1402;529;23;4;1317;4459;5;1372;250;17;5;0;0;0;0;0;0;0;0;6;2700;13227;4;1403;1342;607;580;26;7;2443;12282;4;2565;469;23;8;2485;10144;4;2609;492;22;9;1193;4647;4;1278;577;19
27.01.21;13:55:00;1;537;8390;0;2;2296;6011;4;2422;417;26;3;1483;3021;4;1577;530;23;4;1499;4350;5;1562;250;17;5;0;0;0;0;0;0;0;0;6;3068;13000;4;1592;1534;611;587;26;7;3029;12080;4;3152;488;23;8;2986;9946;4;3130;487;22;9;1623;4549;4;1726;545;19
27.01.21;13:50:00;1;576;8345;0;2;2492;5818;4;2626;422;26;3;1628;2896;4;1724;533;22;4;1633;4223;5;1702;239;17;5;0;0;0;0;0;0;0;0;6;3427;12738;4;1801;1728;606;578;26;7;3489;11825;4;3652;493;23;8;3450;9694;4;3609;490;22;9;1862;4413;4;1973;530;19